Flag for U.S.A. Weather past 2 weeks in West Covina, California, U.S.A.

Now
57 °F

Overcast.


Feels Like: 57 °F
Forecast: 47 / 57 °F
Wind: 5 mph from Southeast

Location: Fullerton Municipal Airport

Current Time: Mar 1, 2015 at 9:45:01 PM

Latest Report: Mar 1, 2015 at 8:53 PM


Visibility: 10 mi

Pressure: 29.94 "Hg

Humidity: 64%

Dew point: 45 °F

Location of West CovinaLocation

Historic Weather in West Covina — Graph

°F

West Covina temperature yesterday

Maximum temperature yesterday: 65 °F (at 12:53 PM)
Minimum temperature yesterday: 54 °F (at 10:53 PM)
Average temperature yesterday: 59 °F

Past Weeks' High & Low Weather Summary

 TemperatureHumidityPressure
High77 °F (Feb 15, 12:53 PM)93% (Feb 23, 3:53 AM)30.23 "Hg (Feb 23, 3:53 AM)
Low45 °F (Feb 24, 5:53 AM)13% (Feb 24, 2:53 PM)29.75 "Hg (Feb 27, 4:53 PM)
Average61 °F65%29.97 "Hg
* Reported Feb 14 8:53 PM — Mar 1 8:53 PM, West Covina, Weather by CustomWeather, © 2015

Note: Actual official high and low records may vary slightly from our data, if they occured in-between our weather recording intervals... More about our weather records

Advertising

West Covina weather history for previous 24 hours

 ConditionsComfort  
Time TempWeatherWind HumidityBarometerVisibility
8:53 PM
Sun, Mar 1
57 °FOvercast.5 mph64%29.94 "Hg10 mi
7:53 PM58 °FOvercast.6 mph58%29.92 "Hg10 mi
6:53 PM58 °FOvercast.8 mph56%29.91 "Hg10 mi
5:53 PM60 °FMostly cloudy.8 mph56%29.90 "Hg10 mi
4:53 PM61 °FMostly cloudy.8 mph56%29.89 "Hg10 mi
3:53 PM61 °FOvercast.10 mph54%29.88 "Hg10 mi
2:53 PM62 °FBroken clouds.5 mph54%29.88 "Hg10 mi
1:53 PM61 °FOvercast.3 mph56%29.89 "Hg10 mi
12:53 PM59 °FBroken clouds.9 mph62%29.91 "Hg10 mi
11:53 AM60 °FCloudy.6 mph62%29.93 "Hg10 mi
10:53 AM61 °FPassing clouds.5 mph60%29.91 "Hg10 mi
9:53 AM59 °FScattered clouds.No wind67%29.94 "Hg10 mi
8:53 AM59 °FPartly sunny.3 mph69%29.93 "Hg10 mi
7:53 AM54 °FSunny.6 mph80%29.92 "Hg10 mi
6:53 AM52 °FSunny.6 mph83%29.92 "Hg10 mi
5:53 AM51 °FClear.6 mph86%29.91 "Hg10 mi
4:53 AM51 °FClear.6 mph86%29.90 "Hg10 mi
3:53 AM52 °FPassing clouds.6 mph86%29.90 "Hg10 mi
2:53 AM53 °FPassing clouds.6 mph86%29.90 "Hg10 mi
1:53 AM54 °FRain. Fog.6 mph86%29.91 "Hg5 mi
12:53 AM53 °FPartly cloudy.5 mph83%29.91 "Hg10 mi
11:53 PM
Sat, Feb 28
54 °FPartly cloudy.6 mph86%29.91 "Hg10 mi
10:53 PM54 °FLight rain. Overcast.3 mph80%29.90 "Hg10 mi
9:53 PM56 °FLight rain. Mostly cloudy.9 mph72%29.90 "Hg10 mi
Weather by CustomWeather, © 2015

See weather overviewHow to use our weather pages